This is the latest recevied weather packets stored in our database for station/object K9CMP-13. If no packets are shown the sender has not sent any weather packets the latest 10 day(s).
| Time | Temp. | Humidity | Pressure | Rain* | Wind** | Luminosity | Snow |
|---|---|---|---|---|---|---|---|
| 1787666942 | 16.11° C | 94% | 1019.6 hPa | 0 mm | - | - | - |
| 1787664542 | 15.56° C | 91% | 1019.3 hPa | 0 mm | - | - | - |
| 1787663642 | 15.56° C | 92% | 1019.3 hPa | 0 mm | - | - | - |
| 1787662142 | 15° C | 95% | 1019.6 hPa | 0 mm | - | - | - |
| 1787661242 | 14.44° C | 97% | 1019.6 hPa | 0 mm | - | - | - |
| 1787660342 | 14.44° C | 99% | 1019.6 hPa | 0 mm | - | - | - |
| 1787658842 | 12.22° C | 100% | 1019.3 hPa | 0 mm | - | - | - |
| 1787657342 | 12.22° C | 100% | 1019.3 hPa | 0 mm | - | - | - |
| 1787656442 | 12.22° C | 100% | 1019.3 hPa | 0 mm | - | - | - |
| 1787655842 | 12.22° C | 100% | 1019.3 hPa | 0 mm | - | - | - |
| 1787654042 | 12.78° C | 100% | 1019 hPa | 0 mm | - | - | - |
| 1787652542 | 12.22° C | 100% | 1018.6 hPa | 0 mm | - | - | - |
| 1787650142 | 10.56° C | 100% | 1019.3 hPa | 0 mm | - | - | - |
| 1787649242 | 10.56° C | 100% | 1019 hPa | 0 mm | - | - | - |
| 1787647441 | 10.56° C | 100% | 1019.3 hPa | 0 mm | - | - | - |
| 1787646545 | 10.56° C | 100% | 1019.3 hPa | 0 mm | - | - | - |
| 1787645642 | 10.56° C | 100% | 1019.3 hPa | 0 mm | - | - | - |
| 1787643841 | 10.56° C | 100% | 1019.6 hPa | 0 mm | - | - | - |
| 1787642941 | 10.56° C | 100% | 1019.6 hPa | 0 mm | - | - | - |
| 1787641142 | 10.56° C | 100% | 1019.6 hPa | 0 mm | - | - | - |
| 1787639041 | 11.67° C | 100% | 1019.6 hPa | 0 mm | - | - | - |
| 1787637302 | 11.67° C | 100% | 1020 hPa | 0 mm | - | - | - |
| 1787636642 | 11.67° C | 100% | 1020 hPa | 0 mm | - | - | - |
| 1787634842 | 12.22° C | 99% | 1020 hPa | 0 mm | - | - | - |
| 1787634242 | 12.22° C | 99% | 1020 hPa | 0 mm | - | - | - |
* Rain latest hour (hover to see other rain measurements)
** Current wind speed in m/s (hover to see current wind gust speed)